KUIPER-00024 (63738 NORAD) Tracking and Keplerian Element Data

This shows tracking and keplerian element data for the satellite.

Feedback or suggestion? Click here.




ElementValue
Catalog63738
NameKUIPER-00024
Epoch Orbit543
Epoch Day354.25003472
Epoch Year2025
RAAN84.3623
Inclination51.9028
Eccentricity0.0002426
Argument of Perigee189.722
Mean Anonmoly186.5652
Mean Motion14.78921761
Decay Rate0.00064782
L11 63738U 25088Q 25354.25003472 .00064782 00000+0 86497-2 0 9994
L22 63738 51.9028 84.3623 0002426 189.7220 186.5652 14.78921761 5434



Live tracking and technical data element details for KUIPER-00024 (NORAD 63738). KUIPER-00024 can be tracked NOW for your location showing map with azimuth and elevation plus other details from your city location.







IsCatalogInMostPopularTable: catalog: 63738, numindb: 3
Update: records affected: 1



GetName: 63738 KUIPER-00024

Hit Count: updated at: Mon, 20 Apr 2026 08:44:43 GMT